Location: Unspecified
(0.0000°N, 0.0000°E)
Time: 18:19:45
(UTC+00:00)

JUGNU - Pass Details

Date: 15 December 2017
Orbit: 837 x 864 km, 20.0° (Epoch: 23 June)

Event Time Altitude Azimuth Distance (km) Brightness Sun altitude
Rises 19:10:44 0° 225° (SW) 3,409 ? -17.2°
Reaches altitude 10° 19:14:24 10° 203° (SSW) 2,466 ? -18.1°
Maximum altitude 19:17:52 16° 167° (SSE) 2,079 ? -18.9°
Drops below altitude 10° 19:21:19 10° 131° (SE) 2,453 ? -19.7°
Enters shadow 19:21:46 - 128° (SE) 2,549 ? -19.8°
